Home   Weather   Rovaniemi   Past weeks

Flag for Finland Past Weather in Rovaniemi, Finland — Yesterday and Last 2 Weeks

Now
27 °F

Sunny.


Feels Like: 17 °F
Forecast: 29 / 36 °F
Wind: 10 mph from Northeast

Location: Rovaniemi Airport

Current Time: Apr 26, 2017 at 5:33:01 am

Latest Report: Apr 26, 2017 at 4:50 am


Visibility: 10 mi

Pressure: 29.68 "Hg

Humidity: 74%

Dew Point: 19 °F

Location of RovaniemiLocation

Past Weather in Rovaniemi — Graph

°F

Rovaniemi Temperature Yesterday

Maximum temperature yesterday: 41 °F (at 4:20 pm)
Minimum temperature yesterday: 27 °F (at 5:20 am)
Average temperature yesterday: 33 °F

High & Low Weather Summary for the Past Weeks

 TemperatureHumidityPressure
High41 °F (Apr 25, 4:20 pm)100% (Apr 20, 4:50 am)30.36 "Hg (Apr 20, 4:50 am)
Low14 °F (Apr 13, 6:20 am)29% (Apr 18, 2:50 pm)29.09 "Hg (Apr 11, 3:20 am)
Average27 °F70%29.74 "Hg
* Reported Apr 11 3:20 am — Apr 26 3:50 am, Rovaniemi, Weather by CustomWeather, © 2017

Note: Actual official high and low records may vary slightly from our data, if they occured in-between our weather recording intervals... More about our weather records

Advertising

Rovaniemi Weather History for the Previous 24 Hours

Scroll right to see more
 ConditionsComfort  
Time TempWeatherWind HumidityBarometerVisibility
3:50 am
Wed, Apr 26
27 °FClear.10 mph69%29.71 "Hg10 mi
3:20 am27 °FClear.10 mph69%29.71 "Hg10 mi
2:50 am27 °FClear.10 mph69%29.74 "Hg10 mi
2:20 am28 °FClear.9 mph64%29.74 "Hg10 mi
1:50 am28 °FClear.10 mph69%29.74 "Hg10 mi
1:20 am28 °FClear.8 mph69%29.74 "Hg10 mi
12:50 am28 °FClear.6 mph74%29.74 "Hg10 mi
12:20 am30 °FClear.7 mph75%29.74 "Hg10 mi
11:50 pm
Tue, Apr 25
30 °FClear.6 mph80%29.77 "Hg10 mi
11:20 pm30 °FClear.7 mph80%29.77 "Hg10 mi
10:50 pm32 °FClear.7 mph80%29.77 "Hg10 mi
10:20 pm34 °FClear.8 mph75%29.77 "Hg10 mi
9:50 pm34 °FClear.7 mph81%29.77 "Hg10 mi
9:20 pm34 °FSunny.7 mph81%29.77 "Hg10 mi
8:50 pm36 °FSunny.7 mph75%29.77 "Hg10 mi
8:20 pm36 °FSunny.9 mph75%29.77 "Hg10 mi
7:50 pm36 °FSunny.5 mph75%29.77 "Hg10 mi
7:20 pm37 °FPartly sunny.5 mph70%29.77 "HgN/A
6:50 pm37 °FSnow flurries. Broken clouds.5 mph65%29.77 "HgN/A
6:20 pm39 °FRain showers. Partly sunny.6 mph61%29.77 "HgN/A
5:50 pm41 °FPassing clouds.3 mph49%29.77 "HgN/A
5:20 pm41 °FSunny.2 mph49%29.77 "Hg10 mi
4:50 pm39 °FPartly sunny.3 mph52%29.77 "HgN/A
4:20 pm41 °FScattered clouds.1 mph49%29.77 "HgN/A
3:50 pm39 °FScattered clouds.3 mph56%29.77 "HgN/A
3:20 pm39 °FPartly sunny.7 mph56%29.77 "HgN/A
2:50 pm37 °FPartly sunny.6 mph60%29.80 "HgN/A
2:20 pm37 °FPartly sunny.6 mph65%29.80 "HgN/A
1:50 pm36 °FScattered clouds.6 mph70%29.80 "HgN/A
1:20 pm36 °FScattered clouds.8 mph70%29.80 "HgN/A
12:50 pm34 °FPartly sunny.7 mph75%29.80 "HgN/A
12:20 pm34 °FPartly sunny.8 mph70%29.80 "HgN/A
11:50 am34 °FBroken clouds.7 mph65%29.80 "HgN/A
11:20 am32 °FPartly sunny.7 mph69%29.80 "HgN/A
10:50 am30 °FPartly sunny.8 mph75%29.80 "HgN/A
10:20 am30 °FSnow flurries. Broken clouds.8 mph75%29.80 "HgN/A
9:50 am28 °FSnow flurries. Broken clouds.8 mph80%29.80 "HgN/A
9:20 am28 °FSnow flurries. Partly sunny.7 mph74%29.80 "HgN/A
8:50 am28 °FBroken clouds.6 mph69%29.77 "HgN/A
8:20 am28 °FBroken clouds.8 mph74%29.77 "HgN/A
7:50 am27 °FBroken clouds.7 mph74%29.77 "HgN/A
7:20 am27 °FSunny.8 mph74%29.77 "Hg10 mi
6:50 am27 °FSunny.8 mph74%29.77 "Hg10 mi
6:20 am27 °FSunny.8 mph74%29.77 "Hg10 mi
5:50 am27 °FSunny.7 mph74%29.77 "Hg10 mi
5:20 am27 °FSunny.7 mph80%29.77 "Hg10 mi
Weather by CustomWeather, © 2017

See weather overviewHow to use our weather pages